Погода в Лукуве

Польша     51°55′57″N   22°23′31″E
темп.,
°C
ветер,
м/с
пор.,
м/с
влажн.,
%
обл.,
%
осадки,
мм/ч
давл.,
гПа
погр.,
м
6 августа, пт
пт623:00+15св81497100 8.8 1003519
02:00+15св81498100 23.4 999582
05:00+16в489993 4.9 997362
08:00+16вюв3496100 5.3 997308
11:00+17юз3495100 0.5 997379
14:00+13зюз91396100 1.1 999572
17:00+13зюз81394100 1.2 1001768
20:00+13з71293100 1.3 1002796
7 августа, сб
сб723:00+13зюз71394100 0.1 1003698
02:00+13зюз71494100 1.1 1004635
05:00+12зюз7159191 0.0 1005532
08:00+13з7148442 0.0 1007558
11:00+19з79555 0.0 10081032
14:00+22з79525 0.0 10091532
17:00+23з475544 0.0 10091656
20:00+18зюз368176 0.1 101089
8 августа, вс
вс823:00+16ю2384100 0.0 101123
02:00+16юв3585100 0.0 101177
05:00+16вюв41184100 0.0 1010207
08:00+19юв61474100 0.0 1009379
11:00+24ююз71055100 0.0 1009992
14:00+21зюз8107649 0.1 1011760
17:00+23з6960100 0.0 10131589
20:00+18зюз23795 0.0 101529
9 августа, пн
пн923:00+17юз337837 0.0 101629
02:00+16юз358159 0.0 101786
05:00+17з496973 0.0 1018273
08:00+17ююз2281100 0.1 101971
11:00+22зюз345716 0.0 10201098
14:00+24з454838 0.0 10202181
17:00+24зсз44459 0.0 10201914
20:00+19зсз22625 0.0 102016
10 августа, вт
вт1023:00+17ссз226494 0.0 102012
02:00+16всв1165100 0.0 102011
05:00+17вюв1165100 0.0 102011
08:00+19ююв2363100 0.0 1019198
11:00+23ю2356100 0.0 1019761
14:00+25ююз344981 0.1 10181897
17:00+25юз34488 0.0 10171793
20:00+18ссз237917 0.7 101752